Location: *
(50.9167°S, 179.4000°W)
Time: 13:25:14
(UTC+00:00)

COSMOS 2428 - Visible Passes

Search period start: 18 June 2024 00:00
Search period end: 28 June 2024 00:00
Orbit: 844 x 856 km, 70.9° (Epoch: 17 June)

Date Brightness Start Highest point End Pass type
(mag) Time Alt. Az. Time Alt. Az. Time Alt. Az.
19 Jun 4.8 19:15:20 10° S 19:18:56 16° SSE 19:22:31 10° ESE visible
20 Jun 4.8 19:02:48 10° S 19:06:23 16° SSE 19:09:57 10° ESE visible
21 Jun 4.8 18:50:15 10° S 18:53:50 16° SSE 18:57:24 10° ESE visible
22 Jun 4.8 18:37:43 10° S 18:41:17 16° SSE 18:44:51 10° ESE visible
23 Jun 4.8 18:25:11 10° S 18:28:44 16° SSE 18:32:17 10° ESE visible
24 Jun 4.9 18:12:39 10° S 18:16:12 16° SSE 18:19:43 10° ESE visible
25 Jun 4.9 18:00:06 10° S 18:03:38 16° SSE 18:07:10 10° ESE visible
26 Jun 4.9 17:47:34 10° S 17:51:06 16° SSE 17:54:36 10° ESE visible
27 Jun 4.9 17:35:01 10° S 17:38:33 16° SSE 17:42:03 10° ESE visible
27 Jun 3.6 19:18:40 10° SSW 19:24:18 48° SE 19:29:50 10° NE visible
